[[{"header":{"parameterUnit":"m.s-1","parameterCategory":1,"la1":30.2991,"la2":30.254,"lo1":-89.0895,"lo2":-89.0444,"dy":0.0017,"dx":0.0017,"nx":28,"ny":28,"refTime":"2024-04-29T09:00:00:Z","depth":0,"parameterNumber":2,"parameterNumberName":"U-component_of_WINDS"},"data":[0,0,0,0,0,0,0,0,0,0,0,0,0,0,0,0,0,0,0,0,0,0,0,0,0,0,0,0,0,0,0,0,0,0,0,0,0,0,0,0,0,0,0,0,0,0,0,0,0,0,0,0,0,0,0,0,0,0,2.2635,2.2636,0,2.2689,2.2689,2.269,2.2747,2.2747,2.2748,2.2749,2.2803,2.2804,2.2805,0,0,0,0,0,0,0,0,0,0,0,0,0,2.2582,2.2583,2.2635,2.2636,2.2637,2.2689,2.269,2.269,2.2746,2.2747,2.2748,2.2749,2.2803,2.2804,2.2805,0,0,0,0,0,0,0,0,0,0,0,0,0,2.2617,2.2583,2.2635,2.2671,2.2675,2.2689,2.269,2.269,2.2746,2.2747,2.2749,2.275,2.2803,2.2804,2.2805,2.2788,0,0,2.2808,2.2809,0,0,0,0,0,0,0,0,2.2615,2.2619,2.2665,2.2668,2.2673,2.2712,2.2691,2.2723,2.2746,2.2719,2.2749,2.275,2.2772,2.2776,2.2783,2.2791,2.2793,2.2808,2.2809,2.281,2.281,0,0,0,0,0,0,0,2.2613,2.2617,2.2656,2.2665,2.267,2.2685,2.2691,2.2697,2.2738,2.2721,2.2726,2.2731,2.2774,2.2782,2.2785,2.2794,2.2808,2.2809,2.281,2.281,2.2792,2.2791,0,0,0,0,0,0,2.2605,2.2615,2.2655,2.2658,2.2646,2.2684,2.2692,2.2698,2.2738,2.2746,2.273,2.2734,2.278,2.2784,2.2787,2.2772,2.281,2.2811,2.2811,2.2794,2.2792,2.2791,0,0,0,0,0,0,2.2604,2.2608,2.2653,2.2638,2.2644,2.2684,2.2691,2.2699,2.2707,2.2745,2.2753,2.273,2.2781,2.2786,2.2788,2.2774,2.2811,2.2812,2.2795,2.2793,2.2792,2.274,0,0,0,0,0,0,2.2602,2.2607,2.2601,2.2637,2.2645,2.2652,2.269,2.2699,2.2708,2.2713,2.2747,2.2754,2.2782,2.2786,2.2789,2.2777,2.2813,2.2796,2.2794,2.2792,2.2743,2.2736,2.2731,0,0,0,0,0,2.26,2.2583,2.26,2.2605,2.2638,2.2651,2.2656,2.2688,2.2707,2.2701,2.2726,2.2753,2.2775,2.2786,2.279,2.2777,2.2797,2.2795,2.2792,2.2745,2.2738,2.2731,0,0,0,0,0,0,2.2544,2.2589,2.2608,2.2603,2.2623,2.2661,2.2654,2.2679,2.2694,2.2698,2.2738,2.2745,2.2743,2.276,2.2772,2.2764,2.279,2.2788,2.2753,2.2746,2.274,2.2737,2.2814,0,0,0,0,0,2.2531,2.2538,2.2577,2.2568,2.2578,2.2614,2.2621,2.2645,2.2667,2.2676,2.2701,2.2722,2.2734,2.2741,2.2754,2.2745,2.2754,2.2739,2.2733,2.2728,2.2726,2.2725,2.2719,2.2783,2.2783,2.2783,0,0,2.2504,2.253,2.2531,2.2558,2.2576,2.2583,2.2621,2.2626,2.2632,2.2677,2.2681,2.27,2.2726,2.2724,2.2724,2.2738,2.271,2.2724,2.272,2.2721,2.2722,2.2716,2.271,2.2781,2.2781,2.2782,0,0,2.246,2.2479,2.2475,2.2493,2.2521,2.2545,2.2544,2.2579,2.2594,2.2599,2.2633,2.2641,2.266,2.2678,2.2689,2.2653,2.2679,2.2656,2.2625,2.2624,2.2619,2.2615,2.2604,2.2599,2.2654,2.2653,2.2653,0,2.2423,2.2435,2.247,2.2474,2.2485,2.2526,2.2524,2.2539,2.2569,2.2577,2.2592,2.2618,2.2638,2.2642,2.2633,2.264,2.2642,2.2652,2.2617,2.2613,2.2609,2.2599,2.2595,2.2651,2.2651,2.2651,2.2652,0,2.239,2.2397,2.2391,2.242,2.2431,2.2431,2.2467,2.2473,2.2496,2.2519,2.2525,2.2551,2.2571,2.2573,2.2595,2.258,2.2588,2.2609,2.2636,2.26,2.2591,2.2588,2.2647,2.2648,2.2649,2.2649,0,0,2.2311,2.2361,2.2358,2.2373,2.2407,2.2413,2.2416,2.2436,2.2442,2.2461,2.2465,2.2481,2.2502,2.2515,2.2539,2.2538,2.251,2.256,2.2561,2.2551,2.2498,2.2483,2.2477,2.2527,2.2527,2.2526,2.2496,0,2.2274,2.2282,2.2314,2.2312,2.2321,2.2361,2.2363,2.2385,2.2407,2.2418,2.2442,2.2454,2.2479,2.2487,2.2487,2.2513,2.25,2.2516,2.2533,2.2533,2.2526,2.2473,2.2456,2.2427,2.2493,2.2492,2.2492,0,2.2232,2.225,2.2249,2.2284,2.2289,2.2291,2.2313,2.2322,2.2348,2.2364,2.2379,2.2407,2.2413,2.2438,2.2448,2.2458,2.2467,2.2481,2.248,2.2484,2.2511,2.2476,2.2418,2.2414,2.2486,2.2487,2.2487,0,2.2177,2.2201,2.2204,2.2215,2.2256,2.2256,2.2274,2.23,2.2311,2.233,2.2338,2.2357,2.2367,2.2382,2.2415,2.2429,2.2422,2.2449,2.2437,2.2436,2.2434,2.2434,2.2378,2.2437,2.2437,2.2437,2.2437,0,2.2133,2.2131,2.218,2.2182,2.2182,2.222,2.2219,2.2239,2.2263,2.2271,2.2306,2.2312,2.2354,2.2366,2.2391,2.2397,2.2401,2.2415,2.2423,2.2413,2.2412,2.242,2.2424,2.2436,2.2436,2.2437,2.2437,0,2.2072,2.2105,2.2111,2.215,2.2159,2.2158,2.2191,2.2195,2.222,2.2229,2.2233,2.2271,2.2287,2.2321,2.2345,2.2363,2.2363,2.2374,2.2354,2.2359,2.2346,2.2347,2.2294,2.229,2.235,2.2349,2.2349,0,2.2043,2.2043,2.2081,2.2089,2.2105,2.2117,2.2128,2.2165,2.2175,2.2205,2.2206,2.2224,2.2241,2.2264,2.2295,2.2314,2.2328,2.2308,2.2331,2.2322,2.233,2.233,2.2331,2.2303,2.2302,2.2302,2.2301,0,2.1987,2.2004,2.2018,2.2039,2.2052,2.207,2.209,2.2094,2.2136,2.2146,2.2163,2.2176,2.2201,2.222,2.2244,2.2263,2.2289,2.2293,2.2292,2.2283,2.2272,2.228,2.2342,2.2295,2.2295,2.2296,2.2296,2.2296,2.1943,2.1945,2.1973,2.1989,2.2008,2.2026,2.2033,2.2058,2.2072,2.2096,2.2117,2.2132,2.216,2.2195,2.2212,2.2225,2.2238,2.2236,2.2235,2.2235,2.2231,2.2269,2.223,2.223,2.223,2.223,2.223,0,2.1891,2.1911,2.1925,2.1952,2.1965,2.1989,2.2013,2.2022,2.2035,2.2058,2.2074,2.2094,2.2112,2.2145,2.2166,2.217,2.2183,2.2175,2.2176,2.218,2.2218,2.2217,2.2164,2.2164,2.2164,2.2164,2.2164,2.2164,2.1865,2.1871,2.1891,2.1908,2.1928,2.1943,2.1955,2.1973,2.1992,2.2012,2.2028,2.2049,2.2076,2.21,2.2119,2.2128,2.2135,2.2123,2.2136,2.2171,2.2177,2.2183,2.2183,2.2124,2.2123,2.2098,2.2097,2.2097]},{"header":{"parameterUnit":"m.s-1","parameterCategory":1,"la1":30.2991,"la2":30.254,"lo1":-89.0895,"lo2":-89.0444,"dy":0.0017,"dx":0.0017,"nx":28,"ny":28,"refTime":"2024-04-29T09:00:00:Z","depth":0,"parameterNumber":3,"parameterNumberName":"V-component_of_WINDS"},"data":[0,0,0,0,0,0,0,0,0,0,0,0,0,0,0,0,0,0,0,0,0,0,0,0,0,0,0,0,0,0,0,0,0,0,0,0,0,0,0,0,0,0,0,0,0,0,0,0,0,0,0,0,0,0,0,0,0,0,1.9472,1.9473,0,1.9572,1.9573,1.9574,1.9582,1.958,1.9579,1.9578,1.9679,1.9683,1.9686,0,0,0,0,0,0,0,0,0,0,0,0,0,1.9282,1.9286,1.9472,1.9473,1.9474,1.9572,1.9573,1.9575,1.9582,1.958,1.9579,1.9578,1.9678,1.9682,1.9687,0,0,0,0,0,0,0,0,0,0,0,0,0,1.9372,1.9287,1.9472,1.949,1.9492,1.9572,1.9573,1.9575,1.9582,1.958,1.9579,1.9577,1.9676,1.9682,1.9687,1.9755,0,0,1.9704,1.9707,0,0,0,0,0,0,0,0,1.9367,1.9379,1.9486,1.9489,1.9492,1.9563,1.9543,1.9635,1.9582,1.9548,1.9578,1.9576,1.9641,1.965,1.9672,1.9759,1.9764,1.9705,1.9708,1.971,1.9712,0,0,0,0,0,0,0,1.936,1.9374,1.9512,1.9487,1.9491,1.9491,1.9502,1.9561,1.9603,1.9551,1.9552,1.9563,1.9643,1.9667,1.9675,1.9765,1.9704,1.9709,1.9713,1.9715,1.9908,1.991,0,0,0,0,0,0,1.9351,1.9369,1.9508,1.9515,1.9424,1.9496,1.9508,1.9542,1.9602,1.961,1.9565,1.9563,1.9658,1.9668,1.9678,1.9758,1.971,1.9716,1.9719,1.9906,1.9908,1.991,0,0,0,0,0,0,1.9347,1.9364,1.9504,1.9442,1.946,1.9501,1.9538,1.9544,1.9569,1.9613,1.962,1.9582,1.9657,1.967,1.9735,1.9762,1.9718,1.9723,1.9904,1.9907,1.9909,1.992,0,0,0,0,0,0,1.9342,1.9362,1.939,1.9443,1.9463,1.9561,1.954,1.9548,1.9578,1.9578,1.9631,1.9638,1.9657,1.9726,1.974,1.9769,1.9727,1.9902,1.9905,1.9908,1.9918,1.9923,1.9928,0,0,0,0,0,1.9335,1.9389,1.9391,1.9408,1.9499,1.9562,1.9574,1.9595,1.9581,1.9607,1.9635,1.9636,1.9757,1.9733,1.9749,1.9779,1.99,1.9904,1.9908,1.9915,1.9922,1.9927,0,0,0,0,0,0,1.9338,1.9397,1.9399,1.9473,1.9512,1.9563,1.9598,1.9602,1.9647,1.9644,1.9668,1.968,1.9742,1.9767,1.974,1.9845,1.9826,1.9834,1.9827,1.9833,1.9838,1.983,1.9732,0,0,0,0,0,1.9348,1.9396,1.9444,1.9504,1.9523,1.9557,1.9586,1.9599,1.964,1.9657,1.969,1.973,1.9776,1.9806,1.9852,1.9921,1.9931,1.995,1.9954,1.9958,1.9964,1.9999,2.0006,1.9923,1.9923,1.9923,0,0,1.9368,1.9405,1.9434,1.9505,1.9538,1.9584,1.9571,1.9623,1.9657,1.9665,1.9727,1.9752,1.9798,1.9864,1.9895,1.9886,1.9989,1.9963,1.9966,1.997,2.0003,2.0011,2.0018,1.9926,1.9926,1.9925,0,0,1.9427,1.9462,1.9514,1.9546,1.9595,1.9616,1.9629,1.9679,1.9695,1.9758,1.9763,1.9804,1.9885,1.9916,1.9942,2.0009,2.0011,2.0023,2.0049,2.0082,2.0089,2.0095,2.0116,2.0123,2.0029,2.0029,2.0029,0,1.9446,1.9518,1.954,1.959,1.962,1.9628,1.968,1.9709,1.977,1.979,1.978,1.9878,1.991,1.9981,1.9997,2.002,2.0032,2.0017,2.0086,2.0092,2.0098,2.0118,2.0126,2.003,2.003,2.003,2.003,0,1.9536,1.9586,1.9622,1.968,1.9713,1.9764,1.9792,1.9823,1.9832,1.9853,1.9915,1.9953,2.0004,2.0022,2.0032,2.0094,2.0087,2.0082,2.0063,2.0107,2.0126,2.0134,2.0032,2.0031,2.0031,2.0031,0,0,1.9603,1.967,1.9682,1.9707,1.976,1.9798,1.9847,1.9897,1.9922,1.9963,2.0003,2.0069,2.0063,2.0093,2.0106,2.0135,2.0182,2.0126,2.0127,2.0132,2.0248,2.0251,2.026,2.0183,2.0185,2.0186,2.0244,0,1.9666,1.9755,1.9775,1.985,1.9895,1.9902,1.9944,1.998,2.0001,2.004,2.0062,2.0108,2.0098,2.0115,2.0145,2.017,2.0205,2.0166,2.0218,2.022,2.0205,2.027,2.0274,2.0327,2.0252,2.0253,2.0254,0,1.9753,1.9794,1.9874,1.9918,1.9937,1.9975,2.0021,2.0059,2.0098,2.0111,2.0142,2.0151,2.02,2.0179,2.0245,2.0218,2.024,2.0255,2.0258,2.0262,2.0239,2.0274,2.0344,2.0351,2.0267,2.0266,2.0265,0,1.9789,1.9865,1.9922,1.9944,1.9997,2.0022,2.0045,2.0083,2.0111,2.015,2.0168,2.0212,2.0236,2.0269,2.0289,2.0273,2.0352,2.0334,2.0361,2.0361,2.0377,2.0376,2.0449,2.0395,2.0394,2.0394,2.0394,0,1.9857,1.9905,1.9939,1.9974,2.0026,2.0047,2.0098,2.0121,2.0154,2.0191,2.02,2.0235,2.026,2.0297,2.0312,2.0362,2.0374,2.0384,2.0387,2.0382,2.038,2.0396,2.0392,2.0396,2.0396,2.0396,2.0395,0,1.9906,1.9932,1.9993,2.0038,2.005,2.0086,2.0123,2.0156,2.0176,2.0223,2.0235,2.0266,2.031,2.0333,2.0389,2.0398,2.0454,2.0456,2.0441,2.0442,2.0467,2.0463,2.0552,2.0563,2.0503,2.0503,2.0504,0,1.9947,1.9984,2.0032,2.0057,2.0081,2.0123,2.015,2.0171,2.0199,2.0245,2.0271,2.0315,2.0352,2.0422,2.0448,2.0489,2.0491,2.0519,2.0497,2.049,2.0488,2.0485,2.0487,2.0523,2.0523,2.0524,2.0524,0,2.0016,2.0026,2.0066,2.0109,2.0142,2.0177,2.0212,2.0232,2.0258,2.0289,2.0334,2.0362,2.0417,2.046,2.0503,2.0524,2.0527,2.0531,2.0539,2.0533,2.0522,2.0526,2.0449,2.0528,2.0528,2.0528,2.0527,2.0527,2.0061,2.0092,2.013,2.0173,2.0201,2.0232,2.0264,2.0287,2.0326,2.0372,2.0382,2.0429,2.0463,2.0521,2.0543,2.0578,2.0572,2.0585,2.0588,2.059,2.059,2.0517,2.0587,2.0587,2.0586,2.0586,2.0586,0,2.0128,2.0151,2.0191,2.0239,2.0272,2.0272,2.031,2.0337,2.0378,2.041,2.0446,2.0495,2.0536,2.0565,2.0605,2.0628,2.063,2.0638,2.0635,2.0639,2.0594,2.0582,2.0635,2.0635,2.0635,2.0635,2.0635,2.0635,2.0166,2.0219,2.0232,2.0297,2.0321,2.0367,2.0387,2.0415,2.0441,2.0496,2.053,2.0548,2.0578,2.062,2.0657,2.0664,2.0677,2.0684,2.0691,2.0648,2.0643,2.0638,2.0627,2.0688,2.0688,2.0733,2.0734,2.0734]}]]